Flag for Japan Weather past 2 weeks in Nagano, Japan

Now
83 °F

Warm.


Feels Like: 88 °F
Forecast: 69 / 94 °F
Wind: 5 mph from West

Location: Nagano

Current Time: Aug 5, 2015 at 5:33:46 PM

Latest Report: Aug 5, 2015 at 4:00 PM


Visibility: N/A

Pressure: 29.80 "Hg

Humidity: 66%

Dew point: 71 °F

Location of NaganoLocation

Historic Weather in Nagano — Graph

°F

Nagano temperature yesterday

Maximum temperature yesterday: 93 °F (at 2:00 PM)
Minimum temperature yesterday: 71 °F (at 5:00 AM)
Average temperature yesterday: 81 °F

Past Weeks' High & Low Weather Summary

 TemperatureHumidityPressure
High98 °F (Jul 21, 4:00 PM)100% (Jul 23, 10:00 PM)29.94 "Hg (Jul 23, 10:00 PM)
Low71 °F (Aug 3, 4:00 AM)31% (Jul 21, 5:00 PM)29.64 "Hg (Jul 27, 2:00 PM)
Average80 °F77%29.81 "Hg
* Reported Jul 21 4:00 PM — Aug 5 4:00 PM, Nagano, Weather by CustomWeather, © 2015

Note: Actual official high and low records may vary slightly from our data, if they occured in-between our weather recording intervals... More about our weather records

Advertising

Nagano weather history for previous 24 hours

 ConditionsComfort  
Time TempWeatherWind HumidityBarometerVisibility
4:00 PM
Wed, Aug 5
83 °FWarm.5 mph66%29.80 "HgN/A
3:00 PM88 °FThunderstorms. Overcast.15 mph51%29.76 "Hg6 mi
2:00 PM92 °FHot.12 mph56%29.75 "HgN/A
11:00 AM89 °FHot.3 mph54%29.78 "HgN/A
10:00 AM87 °FWarm.2 mph63%29.80 "HgN/A
9:00 AM85 °FFog.3 mph65%29.82 "Hg5 mi
8:00 AM80 °FWarm.2 mph73%29.84 "HgN/A
7:00 AM77 °FMild.5 mph80%29.85 "HgN/A
5:00 AM74 °FMild.3 mph87%29.85 "HgN/A
4:00 AM74 °FMild.3 mph86%29.85 "HgN/A
3:00 AM75 °FClear.1 mph86%29.84 "Hg6 mi
2:00 AM76 °FMild.1 mph83%29.84 "HgN/A
1:00 AM78 °FWarm.3 mph79%29.83 "HgN/A
12:00 AM80 °FWarm.6 mph74%29.83 "HgN/A
11:00 PM
Tue, Aug 4
79 °FWarm.5 mph78%29.84 "HgN/A
10:00 PM79 °FWarm.6 mph78%29.85 "HgN/A
9:00 PM81 °FOvercast.5 mph74%29.83 "Hg6 mi
8:00 PM83 °FWarm.3 mph68%29.80 "HgN/A
7:00 PM84 °FWarm.3 mph67%29.78 "HgN/A
6:00 PM88 °FWarm.5 mph60%29.75 "HgN/A
5:00 PM88 °FHot.5 mph58%29.75 "HgN/A
Weather by CustomWeather, © 2015

See weather overviewHow to use our weather pages